Theta_e
299 299 298 298 297 297 297 297 297 297 296 295 295 295 294 294 294 294 294 294 294 294 293 294 294 294 295 295 295 295 295 295 294 294 294 293 293 293 293 293 293 289 282 279 279 279 279 278 277 277 276 277 277 277 278 279 282 284 285 285 283 282 280
298 298 297 297 296 296 296 296 296 296 295 294 294 294 293 293 293 293 293 293 293 292 292 292 293 293 293 293 293 293 294 294 294 293 292 292 292 291 291 292 291 287 281 278 278 278 278 277 276 276 276 276 277 277 277 278 279 280 280 280 279 278 277
298 297 296 296 295 295 295 295 295 294 294 293 293 292 292 292 292 292 291 291 291 291 291 291 291 291 292 292 291 292 292 293 293 292 291 291 290 290 290 291 291 288 282 278 277 277 276 275 275 276 275 275 276 277 277 277 277 277 277 277 277 276 276
297 296 296 295 295 295 295 295 294 293 293 292 292 291 291 291 291 290 290 290 290 290 290 290 290 290 290 290 290 290 290 291 291 291 290 290 289 289 289 289 289 288 285 280 277 276 275 274 275 275 275 275 275 275 275 276 276 276 276 276 275 275 275
296 296 295 294 294 294 294 294 293 292 292 292 291 290 290 290 289 289 289 289 289 289 289 288 289 289 289 288 288 288 288 289 289 289 289 289 288 288 288 288 287 287 285 282 278 276 275 274 274 274 274 274 274 274 274 274 274 275 275 275 274 274 275
296 295 294 294 293 293 293 293 292 291 291 291 290 289 289 289 288 288 288 288 288 288 287 287 287 287 287 287 288 288 288 288 288 288 287 287 287 287 287 286 285 285 285 282 278 275 274 274 274 274 273 273 274 274 273 273 273 273 274 274 273 274 274
295 294 293 293 292 292 292 292 291 290 290 290 289 289 288 288 287 287 287 287 287 287 286 286 286 286 286 287 287 287 288 287 287 286 286 286 287 286 286 285 285 284 283 281 277 275 274 273 273 273 273 273 273 273 273 273 272 272 272 273 273 273 273
295 294 293 292 292 291 291 290 290 289 289 289 288 288 287 287 286 286 286 286 285 285 285 285 285 285 285 285 286 286 286 287 286 285 285 286 286 285 286 285 285 284 282 279 277 275 274 273 273 272 272 272 272 272 272 273 273 273 273 272 273 273 273
293 292 292 291 291 290 290 289 289 289 289 288 288 287 287 286 285 285 285 284 284 284 284 284 283 283 283 284 284 284 285 285 285 285 285 285 285 285 285 285 284 282 280 277 276 274 274 273 272 272 271 271 271 272 273 273 273 274 274 273 273 273 273
292 291 291 291 290 290 290 289 289 289 288 287 287 286 286 285 285 284 284 284 283 283 282 282 282 282 282 283 283 283 283 283 283 284 285 285 285 285 285 285 283 281 279 277 276 275 274 274 273 272 271 271 271 272 273 273 273 273 273 273 273 273 272
291 290 290 290 289 289 289 289 289 288 287 286 286 285 285 284 284 283 283 282 282 282 281 281 281 280 281 281 281 282 282 282 283 284 284 285 285 285 286 286 284 281 279 278 276 275 275 274 274 272 272 272 272 272 273 273 272 273 272 273 274 275 273
290 290 289 289 288 288 288 288 288 287 286 285 285 284 284 284 283 283 282 281 281 281 281 280 279 280 280 281 281 282 282 283 283 283 283 284 284 283 284 285 284 283 280 279 277 275 275 275 275 273 272 272 273 272 272 272 272 272 272 273 275 276 274
289 289 288 288 288 288 287 288 287 286 285 284 284 284 283 282 282 282 281 281 281 281 280 279 279 279 280 280 281 282 282 282 282 282 282 282 281 280 281 281 282 283 282 281 280 278 276 276 275 274 273 274 274 273 273 272 272 272 272 272 274 274 273
288 288 288 287 287 287 287 287 287 285 284 284 283 282 282 281 281 281 281 281 280 280 280 279 279 280 280 280 280 281 281 281 281 280 279 279 278 278 278 279 279 280 280 280 280 280 279 277 277 276 276 275 274 274 273 273 272 272 272 272 272 272 271
288 288 287 287 286 285 285 286 286 284 283 283 282 281 281 280 280 280 280 280 279 279 279 279 279 280 280 280 280 280 280 280 280 279 278 277 277 276 276 276 277 277 278 278 278 279 279 277 276 276 276 274 273 273 273 273 272 272 272 271 271 271 271
287 287 287 286 285 284 284 284 284 283 283 282 281 280 279 279 279 279 278 278 278 277 277 278 279 280 280 280 279 279 279 280 280 279 278 277 276 275 275 275 275 275 275 275 276 276 276 276 275 274 274 274 273 273 272 272 272 271 271 270 270 270 270
286 286 285 285 284 283 283 283 283 283 282 281 280 279 279 278 278 277 277 277 276 276 277 277 278 279 280 280 279 279 279 279 279 278 277 276 275 274 274 274 273 273 273 274 274 274 274 274 273 273 273 272 272 272 272 272 271 271 270 270 271 272 271
284 284 284 284 284 283 282 282 283 282 281 280 279 279 278 278 277 276 276 276 276 276 276 277 278 279 280 280 280 279 278 278 278 278 277 276 274 273 273 273 273 272 272 273 273 273 273 272 272 272 271 271 271 272 272 271 271 271 270 270 271 272 271
283 283 283 283 283 282 282 282 282 282 280 279 279 279 278 278 276 276 275 275 275 275 276 277 277 278 279 280 280 279 278 277 277 277 276 275 274 273 272 272 272 272 273 272 272 272 272 272 272 271 271 271 271 271 271 270 270 270 270 270 271 271 271
282 282 282 282 281 281 281 280 281 280 280 279 278 278 278 277 276 275 275 275 275 275 275 275 276 277 278 279 279 278 277 276 275 276 276 275 275 274 273 272 272 272 272 272 272 271 271 271 271 270 270 270 270 269 269 269 269 269 268 269 270 270 270
280 280 280 280 280 280 280 279 279 279 279 278 278 278 278 277 276 275 275 275 275 275 275 275 276 276 277 277 277 277 276 275 274 275 275 275 275 275 275 274 272 272 271 271 271 270 269 269 269 268 268 268 268 268 268 268 268 268 267 267 268 269 269
279 278 278 278 278 278 278 278 278 278 278 278 277 277 277 277 276 276 275 275 275 275 275 276 277 277 277 276 276 276 275 274 274 274 274 274 275 275 274 273 272 271 270 269 269 268 268 267 267 267 267 267 267 267 267 267 267 267 267 267 267 267 268
277 277 277 277 277 277 277 277 277 276 277 277 277 277 277 277 276 275 275 276 276 276 277 277 278 278 277 275 275 274 274 274 274 273 273 273 273 273 272 272 271 270 269 268 268 268 268 267 267 267 267 267 267 267 267 267 267 267 267 267 267 267 267
277 277 276 276 275 275 275 275 275 276 276 276 277 277 277 276 275 275 275 276 276 277 278 278 279 278 277 275 274 274 274 274 273 273 272 272 271 271 271 271 270 269 269 268 268 268 268 268 268 268 267 267 267 267 266 266 266 266 266 266 267 267 267
276 276 276 276 275 275 275 275 275 275 275 276 276 277 276 276 275 275 275 275 276 277 278 278 278 277 276 274 273 273 273 273 272 272 271 271 270 270 270 270 269 269 269 268 268 268 268 268 268 267 267 267 267 267 266 266 266 266 266 266 266 266 267
276 275 275 275 275 275 274 274 274 275 275 275 276 276 276 276 275 275 275 275 275 276 276 276 276 275 274 273 272 272 271 271 271 270 270 269 269 270 269 269 269 269 269 268 268 268 268 268 267 267 267 267 267 266 266 266 265 265 265 265 265 265 266
275 275 275 275 275 274 274 274 273 274 274 275 275 276 276 275 275 274 274 274 274 274 275 274 274 273 273 272 271 271 271 270 270 269 268 268 269 269 269 269 269 269 269 269 268 268 268 267 267 267 267 266 266 266 265 265 265 265 264 264 264 264 264
275 275 275 275 275 274 273 273 273 273 274 274 275 275 275 274 274 274 274 273 273 273 273 273 272 271 271 271 270 270 269 269 268 268 268 268 268 268 268 269 269 269 268 268 268 268 268 267 267 267 267 266 266 265 264 265 265 264 264 263 263 263 264
275 275 275 275 274 274 273 273 273 274 274 274 274 274 274 274 274 274 273 273 273 273 272 271 270 270 269 269 269 269 268 268 268 267 267 267 268 268 268 268 268 268 267 267 268 268 267 267 266 266 266 265 265 264 264 264 264 264 263 263 263 263 264
274 274 274 274 274 274 274 273 274 274 274 273 273 274 274 274 273 273 273 273 273 273 271 270 269 268 268 268 268 267 267 267 267 267 267 267 267 267 267 267 267 268 268 268 268 267 267 267 266 265 265 265 264 264 263 263 263 263 262 262 262 263 263
274 274 273 273 273 273 273 274 273 273 273 273 273 273 273 273 273 273 273 273 272 271 270 269 268 267 267 267 267 267 267 267 267 267 267 267 267 267 267 268 268 268 268 267 267 267 266 266 266 265 264 264 264 264 263 263 263 263 262 262 262 263 263
273 273 273 273 273 273 273 273 273 273 273 272 272 272 272 272 272 272 273 272 271 270 269 268 268 267 267 267 267 267 267 267 267 267 267 267 267 268 268 268 269 268 268 267 267 266 266 266 265 265 264 264 264 263 263 262 262 262 262 261 261 262 262
272 272 272 272 272 272 272 273 273 273 272 272 272 271 271 271 271 272 272 271 270 269 269 268 268 268 268 268 268 268 268 268 268 268 268 268 269 269 269 269 269 269 268 267 266 266 266 265 265 265 264 264 263 263 262 262 262 262 262 261 261 262 262
271 271 272 272 272 272 272 272 272 272 272 272 271 271 270 270 270 270 270 270 270 270 269 269 269 268 268 268 268 268 268 268 269 269 269 269 269 269 269 269 269 268 267 266 266 266 265 265 265 264 264 263 263 262 262 262 262 262 262 261 262 262 262
271 270 271 271 271 271 271 271 271 271 271 271 271 270 269 269 268 267 268 269 269 270 270 269 268 268 268 268 268 268 268 269 269 269 268 268 268 268 267 267 267 267 266 266 266 265 265 265 264 264 263 263 262 262 262 262 262 262 262 262 262 262 262
270 269 270 270 270 270 270 270 270 270 270 270 270 269 268 268 267 267 267 267 268 269 269 268 268 268 268 268 268 268 268 268 268 268 268 268 268 268 268 267 267 267 266 266 265 265 265 264 264 263 263 262 262 261 261 261 261 262 261 261 261 262 262
Wind_Speed
19 19 18 18 17 17 16 16 16 16 15 15 16 17 17 17 17 17 18 19 20 21 21 21 22 23 24 25 26 27 28 29 29 29 29 29 30 26 22 20 15 10 9 9 17 22 22 24 24 21 21 21 21 22 22 21 20 19 18 17 15 14 12
19 19 18 17 17 17 16 16 16 15 15 16 17 17 17 17 17 17 18 19 20 21 20 21 21 23 24 24 25 25 27 29 29 29 29 28 26 23 22 21 19 16 12 11 16 21 23 25 24 22 21 21 22 22 22 21 21 20 19 17 15 14 12
19 19 18 18 17 17 16 16 16 16 16 16 16 17 17 17 17 18 18 19 20 21 20 20 21 22 23 23 24 24 25 27 29 29 28 27 25 23 22 23 24 21 16 15 16 20 24 25 23 23 23 22 22 21 21 21 21 20 19 17 16 15 14
19 19 19 18 18 17 17 17 16 16 16 16 16 16 16 17 17 18 19 19 20 20 20 20 21 22 23 23 23 24 25 26 28 28 28 27 25 24 23 23 23 23 22 22 19 18 23 24 23 22 23 24 22 21 20 20 19 19 18 17 16 15 16
20 20 20 19 18 18 17 17 17 16 16 16 16 17 17 17 17 18 18 19 20 20 20 20 21 22 22 22 23 23 24 26 26 26 27 27 25 24 24 23 23 22 26 29 26 21 21 22 22 22 22 23 23 21 20 19 18 18 18 17 16 16 16
21 21 21 20 18 18 17 17 17 16 17 17 16 17 17 17 18 18 18 19 20 20 20 20 21 21 22 22 23 24 24 25 25 25 26 26 26 24 23 24 25 23 26 30 30 26 24 23 23 22 22 23 22 22 21 19 17 16 16 16 15 15 15
21 21 20 19 18 17 17 17 17 17 17 17 17 17 17 18 18 18 19 19 20 20 20 20 21 21 21 22 23 24 24 24 25 25 25 26 26 25 25 25 24 23 25 28 28 25 24 24 23 21 22 23 22 21 20 20 17 14 14 15 14 14 14
21 20 20 19 18 18 17 17 18 18 18 18 17 17 17 18 18 19 19 19 19 20 20 20 20 20 21 22 22 23 23 24 26 26 27 27 26 25 24 24 23 23 25 27 26 23 22 22 20 20 22 23 22 19 18 19 17 13 12 14 14 15 15
21 21 20 19 19 18 18 18 19 19 19 18 18 18 18 18 18 19 20 20 20 20 20 20 20 20 21 21 21 22 22 23 25 27 28 28 27 25 24 23 24 26 26 25 23 19 19 18 16 19 22 23 22 20 19 21 19 12 12 13 11 13 15
22 21 21 20 20 20 20 20 20 19 19 18 18 18 18 19 19 20 20 21 20 20 20 20 21 21 21 22 22 22 23 23 24 25 25 25 25 24 24 25 26 27 26 23 18 17 19 17 14 20 25 25 24 22 21 23 20 14 13 13 9 9 13
23 22 22 21 21 21 21 20 20 19 19 19 18 18 19 19 20 21 21 21 22 22 22 22 22 23 23 23 24 24 24 23 23 21 20 21 22 22 23 24 27 28 27 23 18 17 19 17 16 21 26 26 27 24 21 23 22 18 16 14 9 7 9
24 23 22 22 22 22 21 20 19 19 19 19 19 19 19 20 21 21 22 23 23 23 24 25 25 25 25 24 24 24 23 23 21 20 18 19 20 20 20 22 25 27 28 27 24 21 20 19 21 25 27 27 28 27 23 22 22 20 18 15 10 6 6
24 23 23 23 23 22 22 20 20 19 19 20 20 19 20 21 22 22 24 25 25 26 27 28 27 27 26 24 24 24 24 23 22 20 20 20 19 19 19 20 22 24 26 29 29 28 26 26 28 29 30 29 28 27 25 23 21 21 19 16 11 7 7
24 24 24 23 23 23 23 21 20 19 19 19 20 20 21 22 22 23 24 26 26 28 29 30 30 29 27 26 25 25 24 24 23 22 22 21 21 20 19 19 20 21 22 24 26 27 27 28 28 28 29 28 26 24 25 24 22 21 19 16 13 11 10
25 25 24 24 24 24 24 22 20 19 19 20 19 19 21 22 22 23 25 26 27 29 30 31 31 31 30 28 27 26 26 25 24 25 24 23 22 21 19 18 18 18 19 20 21 22 23 25 25 23 24 25 23 21 21 20 19 18 16 14 12 10 10
26 26 25 25 24 24 24 23 21 20 20 20 19 19 21 23 23 24 25 26 28 29 30 31 31 31 30 29 28 27 26 25 25 26 26 25 23 22 20 19 18 17 17 18 19 18 19 21 21 19 19 21 22 21 19 17 16 14 13 10 7 5 7
27 25 25 25 25 25 24 23 22 20 20 20 19 20 22 24 24 25 25 26 28 29 30 31 30 30 29 29 29 28 26 26 26 27 27 27 25 23 22 20 19 18 17 17 17 17 17 18 19 18 17 19 19 18 18 17 15 14 13 9 5 5 6
25 25 24 25 25 24 24 24 22 21 21 21 20 21 23 24 25 26 26 27 29 30 30 30 29 29 29 28 28 28 27 26 27 27 28 28 27 26 24 23 22 20 19 18 18 17 17 17 17 17 17 17 17 16 15 15 14 14 13 9 7 6 6
24 25 25 24 24 23 23 23 23 22 22 21 21 23 25 26 26 27 27 28 29 29 29 30 29 29 28 28 27 28 27 27 27 28 28 29 29 28 26 24 23 22 21 20 19 18 17 17 16 16 16 16 16 14 14 14 14 14 12 10 7 7 6
23 24 25 24 23 23 23 23 23 22 22 22 23 24 26 27 29 30 30 30 29 27 26 28 29 28 28 27 28 28 28 27 27 27 27 28 28 28 28 26 24 22 20 19 18 17 16 16 15 14 14 15 14 13 13 13 13 13 13 10 7 7 7
22 22 22 22 22 23 23 24 23 22 22 22 24 26 28 29 31 33 33 31 30 28 27 28 30 30 29 28 28 28 28 28 27 26 26 26 26 26 25 25 24 22 20 18 18 17 16 15 15 15 15 15 15 15 14 14 14 13 13 13 10 8 8
19 18 18 20 21 22 23 24 23 22 22 23 25 28 29 30 31 33 34 33 32 31 30 31 32 32 31 30 29 29 29 28 28 26 25 25 25 22 22 23 23 21 20 19 18 17 16 16 16 16 16 16 16 16 16 14 14 14 14 14 14 13 11
17 16 15 16 18 20 22 23 23 23 23 24 27 30 30 29 29 31 34 35 34 34 34 33 33 32 32 31 30 30 29 29 28 26 25 24 23 21 21 22 22 22 21 20 18 16 15 15 16 15 16 17 17 17 16 15 15 15 15 15 15 16 16
13 12 11 10 11 14 18 20 21 23 24 24 28 31 30 29 29 30 33 34 34 34 34 33 33 32 32 32 31 30 29 28 27 26 25 24 22 21 21 22 22 23 22 20 19 17 14 14 15 15 14 16 17 16 16 16 15 15 15 15 16 16 17
7 8 7 7 7 9 14 19 21 22 24 25 27 30 30 29 28 30 31 33 32 32 32 32 32 32 32 31 30 28 27 27 26 25 25 24 22 22 22 23 22 22 22 20 19 18 15 13 14 15 14 14 15 15 15 15 15 15 15 15 16 17 18
5 6 6 7 7 7 10 16 20 22 23 24 26 28 29 28 28 28 29 31 30 29 29 29 30 30 30 30 29 27 26 25 24 23 23 23 22 22 22 22 22 22 21 20 19 18 15 12 12 13 13 13 13 14 14 14 14 13 14 15 15 16 19
6 6 7 8 8 7 8 13 18 20 22 23 25 26 27 28 28 27 27 28 27 26 25 26 26 28 29 29 27 25 24 23 23 22 22 22 22 21 21 20 20 19 19 18 16 15 13 12 12 12 12 12 13 13 14 14 13 12 12 13 13 14 17
6 8 10 10 10 8 6 9 16 21 23 25 26 26 27 28 28 28 27 27 25 24 23 24 24 26 27 27 26 24 22 22 23 23 23 22 21 20 20 19 18 17 17 15 14 13 13 13 13 13 13 14 14 13 14 14 14 13 12 11 10 12 13
8 8 10 13 14 12 9 10 16 22 24 25 26 27 27 28 29 29 29 28 27 25 23 24 25 25 26 26 26 24 22 23 24 24 23 23 22 21 20 19 18 17 16 15 14 14 14 14 14 14 14 14 14 14 14 15 14 14 13 12 11 12 12
13 12 12 13 15 14 14 17 20 21 20 21 24 26 26 27 28 29 28 28 26 25 25 25 25 25 26 27 27 26 25 25 25 24 24 23 22 21 20 19 19 18 17 16 15 15 15 15 15 14 14 15 15 14 14 14 14 14 14 13 12 11 12
14 15 15 15 14 14 16 18 20 19 18 19 22 24 25 25 25 27 28 28 27 26 26 26 26 25 26 28 28 27 27 27 26 25 25 23 22 22 21 20 20 20 19 17 16 17 17 17 16 16 15 15 14 13 12 12 13 13 14 13 12 11 11
11 13 14 15 14 14 16 17 18 18 17 17 18 22 23 22 23 25 26 27 26 25 26 27 28 27 28 28 28 28 28 28 28 27 26 25 24 24 23 22 22 20 19 18 18 18 18 17 17 17 16 15 14 13 12 11 11 13 14 14 12 12 12
10 11 12 12 12 13 15 16 17 17 16 15 17 20 22 22 23 23 24 25 25 24 25 28 29 30 30 31 32 32 31 31 31 30 29 28 27 26 25 24 22 20 19 19 19 18 18 17 17 17 16 15 15 15 14 12 11 11 12 12 12 12 12
8 9 11 11 11 12 14 15 16 16 15 14 16 19 21 21 20 20 22 24 25 26 28 30 31 33 35 35 36 35 34 33 33 32 31 30 28 26 24 23 22 20 20 19 18 18 18 18 17 17 16 15 14 13 13 12 11 10 11 11 12 11 11
7 8 10 10 10 11 11 12 13 13 13 13 15 18 20 20 20 21 23 25 26 27 29 31 31 33 35 36 35 34 33 32 31 30 29 27 25 23 21 19 18 19 19 18 18 18 18 18 18 17 17 15 13 12 12 11 11 12 12 12 11 11 10
6 7 9 9 9 9 9 8 9 9 10 12 15 19 21 21 19 20 21 21 20 18 18 21 24 25 27 30 31 30 27 26 26 25 24 23 21 19 18 17 17 18 17 17 18 18 18 18 18 17 17 16 14 14 14 13 12 12 12 12 12 11 10
Wind_Direction
240 240 240 239 240 241 242 245 246 248 247 246 248 249 251 252 250 248 247 249 250 248 245 243 242 241 239 237 233 229 224 221 218 215 213 210 208 211 209 201 185 147 124 146 172 178 178 179 178 177 179 180 179 180 182 184 189 191 193 197 201 206 208
237 238 238 238 240 241 241 244 245 246 244 245 247 248 250 250 249 248 246 246 248 247 245 243 240 238 237 233 230 227 223 220 216 214 213 209 207 208 208 205 188 159 137 139 160 171 174 177 179 177 178 181 181 182 184 186 190 196 201 206 207 208 207
235 236 236 237 240 240 241 243 244 244 244 245 247 249 250 249 247 247 246 244 245 244 242 240 237 235 233 230 226 222 220 219 215 214 213 209 206 205 204 204 195 177 153 138 150 167 171 173 178 178 177 181 182 183 185 187 190 194 200 205 206 205 205
232 233 234 235 238 240 242 243 243 243 244 245 247 248 249 248 247 246 245 243 242 242 241 237 234 233 229 225 221 217 215 214 213 212 211 207 206 206 201 196 193 187 173 155 148 162 172 173 176 179 179 180 180 181 184 186 189 190 195 200 203 205 206
229 230 232 233 235 239 242 243 242 243 243 245 246 247 247 247 246 245 244 243 241 240 239 236 232 230 226 220 216 212 211 211 210 209 206 203 201 199 196 191 187 186 180 167 156 157 169 175 176 177 180 181 179 178 180 184 187 189 191 195 200 205 209
228 230 232 233 234 237 241 242 242 241 242 244 245 246 246 245 244 243 242 241 240 239 236 234 230 227 222 217 214 211 209 207 206 202 199 197 193 188 183 179 176 176 174 168 161 159 165 174 177 176 177 181 182 180 180 181 183 187 192 193 197 205 211
228 230 231 232 234 236 240 241 241 241 241 242 244 244 244 243 241 240 239 238 236 235 232 230 226 223 219 216 214 212 209 203 198 195 193 190 186 180 174 170 170 171 168 163 160 159 164 171 175 176 178 181 183 182 182 180 177 180 190 194 198 205 210
229 229 229 231 234 235 238 239 239 240 241 241 242 242 241 241 239 237 234 232 231 229 228 226 223 219 217 214 212 211 208 202 194 188 185 184 182 179 175 171 168 167 165 161 159 159 162 164 167 174 179 181 182 182 184 183 177 173 183 193 202 208 212
227 228 229 231 232 234 236 238 239 240 241 241 241 240 239 238 236 234 231 227 224 222 221 219 216 213 211 208 206 204 201 197 193 188 183 181 181 180 176 171 166 165 162 159 157 155 158 160 165 173 176 179 183 185 186 184 178 169 176 186 199 214 218
226 227 229 230 232 233 235 237 240 241 242 242 241 240 238 235 233 231 228 224 220 216 213 211 208 204 202 199 196 193 190 186 187 189 189 187 187 187 184 176 169 167 165 161 157 158 162 163 168 178 180 181 185 187 187 185 180 175 180 182 188 215 225
226 227 228 230 232 234 235 238 241 241 240 240 239 238 236 233 230 226 224 222 218 212 206 202 198 195 192 190 188 185 184 184 185 188 192 195 195 197 198 190 180 173 171 168 162 164 170 170 172 180 183 184 185 185 186 185 183 182 182 182 185 198 217
227 228 230 231 233 235 236 238 241 240 239 239 238 236 233 231 228 224 221 219 215 211 203 195 191 188 186 186 185 184 183 184 185 187 189 192 191 192 198 200 193 186 181 179 174 171 175 179 178 179 183 186 186 184 184 184 186 187 185 188 192 188 194
229 229 230 232 234 236 236 238 239 239 238 238 238 236 232 229 227 223 220 217 213 209 202 194 188 185 182 183 184 184 184 183 182 182 183 183 183 184 189 194 197 196 193 191 188 184 184 187 187 184 187 190 189 186 184 183 188 192 192 192 193 183 188
229 230 232 233 235 237 237 238 239 237 236 236 238 237 232 229 227 223 221 218 213 208 202 195 189 185 182 182 183 185 186 184 182 179 178 177 177 179 184 188 192 195 196 196 197 194 192 193 194 193 192 192 191 190 189 188 191 195 195 196 198 199 206
230 231 233 234 235 236 237 239 238 237 235 234 234 234 232 230 226 222 220 217 212 208 202 196 192 189 187 185 185 188 188 187 185 180 176 174 173 174 176 179 184 188 191 194 197 200 199 194 194 196 194 189 188 191 193 194 195 196 196 199 206 216 223
231 232 234 235 234 235 237 239 238 235 233 231 227 225 227 227 223 219 217 214 209 205 200 196 193 193 191 189 188 189 190 190 187 182 177 173 171 171 171 172 175 179 183 187 189 193 195 189 186 188 189 187 187 190 192 193 193 195 198 197 196 214 225
231 232 234 234 234 235 236 238 239 235 232 229 220 216 220 222 217 215 213 209 205 201 198 196 197 197 196 194 192 191 190 191 189 183 178 173 169 168 167 166 168 169 172 175 176 177 179 180 179 179 181 186 190 193 195 193 191 194 197 191 181 191 200
233 235 236 236 237 238 237 239 240 237 232 227 217 214 218 218 212 210 208 204 200 198 198 199 201 202 202 199 196 193 190 191 190 186 181 176 170 168 167 168 169 167 166 168 170 171 172 175 178 178 181 188 193 198 199 196 196 200 196 191 196 197 184
236 237 239 240 240 239 238 240 241 237 232 225 215 213 218 216 209 205 203 199 197 196 198 200 202 204 205 204 200 195 190 190 191 189 185 180 175 170 170 173 173 172 172 171 171 173 175 177 180 182 186 193 195 197 199 198 201 203 198 197 204 201 192
237 238 241 241 241 240 238 238 240 237 232 225 215 213 217 215 208 204 199 195 194 194 196 200 202 203 206 206 202 196 191 189 192 193 190 186 182 180 179 178 177 176 176 175 173 175 176 179 182 183 189 196 199 202 205 206 210 211 208 212 215 212 218
239 239 241 241 241 241 240 238 238 236 232 225 216 215 218 217 212 207 200 194 194 194 195 199 201 202 204 204 202 197 192 190 191 195 194 191 191 193 189 183 178 176 176 176 176 175 175 179 184 188 194 202 207 213 217 219 223 224 222 224 226 226 231
237 237 240 242 241 241 241 239 236 234 231 225 217 217 221 221 217 213 205 198 195 196 198 200 202 203 203 202 200 197 193 191 191 193 195 195 196 197 192 184 179 175 173 174 174 173 174 180 187 193 200 207 214 222 225 227 230 233 234 234 234 235 239
235 235 237 240 241 240 240 238 234 231 229 223 218 219 223 223 220 216 210 205 202 203 203 205 206 206 203 199 198 196 194 194 193 192 194 197 196 192 187 183 179 175 173 172 172 173 177 185 192 197 206 213 218 224 227 229 233 236 239 242 242 243 247
232 233 233 235 237 238 238 236 233 231 229 223 219 220 222 222 220 217 214 212 212 212 212 211 210 208 203 198 197 197 197 197 194 192 193 194 192 187 183 181 180 178 177 176 178 180 184 192 199 203 210 217 220 223 226 228 234 239 242 246 249 251 252
228 228 231 234 234 237 238 235 233 231 229 224 221 221 221 220 219 218 216 215 216 218 217 215 212 207 201 197 196 196 197 197 195 192 192 192 189 184 182 182 181 182 183 184 188 192 193 197 205 211 216 220 221 223 228 230 234 240 244 248 252 255 257
238 234 237 241 240 240 240 238 235 232 229 225 221 220 220 218 218 219 218 217 217 218 218 216 210 203 197 194 192 193 196 196 194 192 192 191 189 186 185 186 187 189 191 193 197 202 202 202 211 219 223 226 227 229 234 236 236 241 248 253 255 259 262
241 238 238 241 241 240 240 241 237 232 228 224 221 218 217 215 215 217 217 215 214 214 213 210 205 198 193 189 188 191 196 196 192 190 190 190 192 192 192 193 196 198 199 201 204 208 211 214 222 228 231 233 235 236 237 240 241 242 248 253 254 256 261
243 241 242 242 241 236 235 240 238 235 231 226 220 216 212 208 208 210 210 209 208 206 205 202 196 189 185 184 184 187 191 191 187 187 190 192 195 198 198 200 202 204 206 207 209 213 218 224 229 233 235 237 240 240 240 243 245 242 238 236 237 241 250
257 256 255 253 250 244 236 239 246 248 243 232 223 217 211 207 206 207 208 208 207 202 195 187 183 179 178 180 181 182 183 184 185 187 192 195 198 201 202 204 206 207 211 213 215 220 226 230 233 235 237 238 240 241 241 243 244 240 233 225 221 229 240
267 268 267 265 262 256 252 254 260 264 257 241 229 222 215 212 210 208 207 207 205 200 189 179 175 176 177 178 180 180 182 184 186 189 194 198 201 204 206 208 211 214 219 222 223 228 233 235 236 238 239 241 241 242 244 245 245 242 236 228 223 228 237
276 275 274 274 272 268 267 266 266 267 264 252 237 225 217 213 211 208 208 206 200 192 184 178 175 177 179 180 182 183 186 188 189 193 197 200 205 209 211 215 218 221 225 228 230 233 236 237 239 239 240 244 245 245 247 250 251 248 240 234 231 233 236
282 281 281 281 278 274 274 274 271 266 263 257 241 226 217 212 209 209 210 205 196 187 182 180 179 180 181 183 186 189 192 194 195 198 201 203 208 212 215 220 223 226 229 232 235 238 239 241 243 243 244 248 249 248 247 245 248 250 245 239 236 236 239
288 285 284 284 283 279 275 276 276 270 262 253 240 226 216 210 209 210 206 195 186 182 182 183 185 186 187 190 193 195 197 199 201 204 206 208 212 216 219 223 226 229 231 233 235 239 241 243 246 247 248 250 250 250 248 241 238 241 239 236 237 238 239
308 301 294 288 284 281 276 272 272 269 262 251 237 223 213 206 203 202 199 193 189 189 190 190 192 194 195 197 198 199 201 202 205 208 210 212 215 218 222 226 226 227 228 230 232 234 237 241 244 244 245 245 244 245 244 238 233 232 228 229 236 240 240
328 321 312 303 293 289 285 278 273 269 260 245 228 212 202 193 183 181 187 193 197 198 197 197 197 199 200 201 201 202 204 206 209 211 212 214 216 218 221 225 226 226 228 230 232 234 237 240 243 244 243 241 236 234 234 231 230 232 232 232 236 239 242
333 329 323 319 310 304 301 295 286 274 257 239 221 203 193 187 181 181 188 195 199 200 201 202 202 203 204 205 205 206 207 210 213 215 216 218 222 224 227 230 232 232 233 234 236 239 241 242 243 244 244 242 238 237 238 237 236 235 233 234 237 240 245